Regional Weather Roundup
Issued by NWS New Orleans/Baton Rouge, LA

Home | Current Version | Previous Version | Graphics & Text | Print | Product List | Glossary On
Versions: 1 2 3 4 5 6 7 8 9 10 11 12 13 14 15 16 17 18 19 20 21 22 23 24 25 26 27 28 29 30 31 32 33 34 35 36 37 38 39 40 41 42 43 44 45 46 47 48 49 50
150
ASUS44 KLIX 281605
RWRLIX
NEW ORLEANS REGIONAL WEATHER ROUNDUP
NATIONAL WEATHER SERVICE NEW ORLEANS LA
1000 AM CST SAT FEB 28 2015

NOTE: "FAIR" INDICATES FEW OR NO CLOUDS BELOW 12,000 FEET WITH NO
      SIGNIFICANT WEATHER AND/OR OBSTRUCTIONS TO VISIBILITY.
      SKY/WX - SKY CONDITION AND SIGNIFICANT WEATHER.
      TMP - AIR TEMPERATURE.     DP    - DEWPOINT TEMPERATURE.
      RH  - RELATIVE HUMIDITY.   PRES  - PRESSURE.
      HI  - HEAT INDEX.          WCI   - WIND CHILL INDEX.

*  THESE STATIONS ARE NOT NWS OR FAA STATIONS AND ARE NOT UNDER
   NWS QUALITY CONTROL.

LAZ038-040-048-061>063-065>067-069-281700-
SOUTHEAST LOUISIANA

CITY           SKY/WX    TMP DP  RH WIND       PRES   REMARKS
N.O. AUDUBON     N/A     50  36  58 MISG        N/A
N.O. INTL ARPT PTSUNNY   51  35  54 E12       30.40F
N.O. LAKEFRONT PTSUNNY   52  35  52 E12       30.41F
SLIDELL        SUNNY     54  36  50 E10G20    30.41F
BATON ROUGE    MOSUNNY   50  32  50 E6        30.40S
BOOTHVILLE     PTSUNNY   51  45  79 NE13G21   30.40S
BELLE CHASSE   PTSUNNY   50  35  56 NE16      30.41S
BOGALUSA*        N/A     54  33  45 E8        30.44F
GALLIANO*      CLOUDY    53  41  62 NE8       30.40S
NEW ROADS*       N/A     52  30  43 E8        30.40S
GONZALES*        N/A     50  34  54 E9        30.40S
HAMMOND*       CLOUDY    54  34  47 E8        30.42F
HOUMA*         CLOUDY    48  37  66 NE14      30.38F
PORT FOURCHON* MOSUNNY   52  45  76 NE20      30.40F

$$

MSZ070-080>082-281700-
SOUTHERN MISSISSIPPI

CITY           SKY/WX    TMP DP  RH WIND       PRES   REMARKS
MCCOMB         SUNNY     49  29  46 VRB6      30.41F
GULFPORT       SUNNY     52  33  48 NE10      30.42F
BILOXI         SUNNY     53  33  47 E12       30.42F
PASCAGOULA     SUNNY     52  34  50 NE12      30.43F
STENNIS ARPT*  SUNNY     54  30  40 E9        30.43F

$$

COASTAL OBSERVATIONS
LAKE AND NEARSHORE STATIONS

STATION/POSITION TIME  TEMP    WIND        PRES    WAVE
                       AIR SEA DIR/SP/G            HT/PER
                 (UTC) (F)     (DEG/KT/KT) (MB)    (FT/S)
PASCAGOULA       1600   51      70/ 12/ 16 1030.0
WAVELAND YACHT   1600   51 47   80/ 12/ 14 1030.0
GRAND ISLE       1600   50 51   70/ 19/ 23 1029.0
SOUTHWEST PASS   1600   56 46   50/ 18/ 22 1028.6
NEW CANAL        1600   49      80/  4/ 11 1029.9
SHELL BEACH      1600   46 49   60/ 18/ 20 1029.9

OFFSHORE STATIONS

STATION/POSITION TIME  TEMP    WIND        PRES    WAVE
                       AIR SEA DIR/SP/G            HT/PER
                 (UTC) (F)     (DEG/KT/KT) (MB)    (FT/S)
64 S DAUPHIN ISL 1453   60 70   70/ 14/ 17 1029.0    6/ 7

$$




USA.gov is the U.S. government's official web portal to all federal, state and local government web resources and services.